When you browse on this site, cookies collect data to enhance your experience and personalize the content and advertising you see.
Visit our Privacy Policy to learn more. By continuing to use the site, you agree to this use of cookies and data.
  • In Hungary
  • List of Countries
  • For 7 days
  • Water Temperature
  • Satellite Maps
  • Weather Map
  • News
  • Weather Widgets
  • user-avatar
    Login

    Hourly Weather Ipoh

    Today, 16 November, Friday

    Time Temperature Precipitation Wind Pressure Humidity
    00:00 +25°C° 0.8 mm 0 mps 754 mmHg 95%
    01:00 +25°C° 0 mm 0 mps 754 mmHg 95%
    02:00 +24°C° 0.2 mm 0 mps 754 mmHg 95%
    03:00 +24°C° 0.2 mm 0 mps 754 mmHg 95%
    04:00 +24°C° 0.2 mm 0 mps 753 mmHg 95%
    05:00 +24°C° 0.1 mm 0 mps 754 mmHg 94%
    06:00 +25°C° 0.1 mm 0 mps 754 mmHg 93%
    07:00 +25°C° 0 mm 0 mps 754 mmHg 91%
    08:00 +29°C° 0.2 mm 1 mps 754 mmHg 85%
    09:00 +31°C° 0.2 mm 1 mps 754 mmHg 78%
    10:00 +32°C° 0.2 mm 1 mps 754 mmHg 72%
    11:00 +32°C° 0.9 mm 2 mps 754 mmHg 73%
    12:00 +32°C° 0.9 mm 2 mps 753 mmHg 74%
    13:00 +34°C° 0 mm 2 mps 753 mmHg 72%
    14:00 +34°C° 1 mm 2 mps 752 mmHg 74%
    15:00 +32°C° 1 mm 2 mps 752 mmHg 76%
    16:00 +32°C° 1 mm 2 mps 752 mmHg 78%
    17:00 +31°C° 0.8 mm 1 mps 752 mmHg 83%
    18:00 +29°C° 0.8 mm 1 mps 752 mmHg 88%
    19:00 +26°C° 0 mm 0 mps 753 mmHg 89%
    20:00 +26°C° 0.6 mm 0 mps 753 mmHg 90%
    21:00 +26°C° 0.6 mm 0 mps 754 mmHg 91%
    22:00 +25°C° 0.6 mm 0 mps 754 mmHg 92%
    23:00 +25°C° 0.3 mm 0 mps 754 mmHg 92%

    Tomorrow, 17 November, Saturday

    Time Temperature Precipitation Wind Pressure Humidity
    00:00 +27°C° 0.3 mm 1 mps 754 mmHg 92%
    01:00 +26°C° 0.3 mm 1 mps 754 mmHg 92%
    02:00 +26°C° 0.1 mm 1 mps 754 mmHg 92%
    03:00 +24°C° 0.1 mm 0 mps 754 mmHg 92%
    04:00 +24°C° 0.1 mm 0 mps 754 mmHg 92%
    05:00 +24°C° 0.4 mm 0 mps 754 mmHg 91%
    06:00 +27°C° 0.4 mm 1 mps 754 mmHg 90%
    07:00 +27°C° 0.4 mm 1 mps 754 mmHg 90%
    08:00 +29°C° 0.1 mm 1 mps 754 mmHg 81%
    09:00 +31°C° 0.1 mm 1 mps 755 mmHg 73%
    10:00 +33°C° 0.1 mm 1 mps 755 mmHg 64%
    11:00 +34°C° 0.2 mm 2 mps 754 mmHg 63%
    12:00 +35°C° 0.2 mm 2 mps 754 mmHg 61%
    13:00 +36°C° 0.2 mm 2 mps 753 mmHg 59%
    14:00 +35°C° 0.3 mm 2 mps 753 mmHg 61%
    15:00 +35°C° 0.3 mm 2 mps 752 mmHg 62%
    16:00 +34°C° 0.3 mm 1 mps 752 mmHg 63%
    17:00 +32°C° 0.4 mm 1 mps 752 mmHg 70%
    18:00 +30°C° 0.4 mm 1 mps 753 mmHg 77%
    19:00 +28°C° 0.4 mm 1 mps 753 mmHg 84%
    20:00 +28°C° 0.3 mm 1 mps 754 mmHg 85%
    21:00 +28°C° 0.3 mm 1 mps 754 mmHg 86%
    22:00 +28°C° 0.3 mm 1 mps 755 mmHg 88%
    23:00 +27°C° 0.1 mm 1 mps 755 mmHg 88%

    Day after tomorrow, 18 November, Sunday

    Time Temperature Precipitation Wind Pressure Humidity
    00:00 +27°C° 0.1 mm 1 mps 754 mmHg 87%
    01:00 +27°C° 0.1 mm 1 mps 754 mmHg 87%
    02:00 +27°C° 0.1 mm 1 mps 754 mmHg 87%
    03:00 +26°C° 0.1 mm 1 mps 754 mmHg 87%
    04:00 +26°C° 0.1 mm 1 mps 753 mmHg 87%
    05:00 +27°C° 0 mm 1 mps 754 mmHg 86%
    06:00 +27°C° 0 mm 1 mps 754 mmHg 85%
    07:00 +27°C° 0 mm 1 mps 755 mmHg 84%
    08:00 +29°C° 0.1 mm 1 mps 755 mmHg 76%
    09:00 +30°C° 0.1 mm 0 mps 755 mmHg 68%
    10:00 +32°C° 0.1 mm 0 mps 756 mmHg 60%
    11:00 +34°C° 0.8 mm 1 mps 755 mmHg 60%
    12:00 +34°C° 0.8 mm 1 mps 755 mmHg 60%
    13:00 +35°C° 0.8 mm 1 mps 754 mmHg 60%
    14:00 +34°C° 0.9 mm 1 mps 753 mmHg 64%
    15:00 +33°C° 0.9 mm 1 mps 753 mmHg 67%
    16:00 +33°C° 0.9 mm 1 mps 752 mmHg 70%
    17:00 +29°C° 0.9 mm 0 mps 753 mmHg 75%
    18:00 +28°C° 0.9 mm 0 mps 753 mmHg 80%
    19:00 +27°C° 0.9 mm 0 mps 754 mmHg 85%
    20:00 +27°C° 0.7 mm 0 mps 755 mmHg 86%
    21:00 +26°C° 0.7 mm 0 mps 755 mmHg 86%
    22:00 +26°C° 0.7 mm 0 mps 756 mmHg 87%
    23:00 +26°C° 0.2 mm 0 mps 756 mmHg 88%

    19 November, Monday

    Time Temperature Precipitation Wind Pressure Humidity
    00:00 +26°C° 0.2 mm 0 mps 755 mmHg 88%
    01:00 +25°C° 0.2 mm 0 mps 755 mmHg 88%
    02:00 +27°C° 0.5 mm 1 mps 755 mmHg 89%
    03:00 +27°C° 0.5 mm 1 mps 754 mmHg 89%
    04:00 +27°C° 0.5 mm 1 mps 754 mmHg 89%
    05:00 +27°C° 0.1 mm 1 mps 754 mmHg 88%
    06:00 +27°C° 0.1 mm 1 mps 755 mmHg 87%
    07:00 +27°C° 0.1 mm 1 mps 755 mmHg 86%
    08:00 +29°C° 0.1 mm 1 mps 756 mmHg 77%
    09:00 +29°C° 0.1 mm 0 mps 756 mmHg 68%
    10:00 +32°C° 0.1 mm 0 mps 756 mmHg 59%
    11:00 +34°C° 0.6 mm 1 mps 756 mmHg 60%
    12:00 +34°C° 0.6 mm 1 mps 755 mmHg 62%
    13:00 +34°C° 0.6 mm 1 mps 754 mmHg 64%
    14:00 +33°C° 1.1 mm 1 mps 754 mmHg 67%
    15:00 +32°C° 1.1 mm 1 mps 753 mmHg 71%
    16:00 +32°C° 1.1 mm 1 mps 753 mmHg 74%
    17:00 +30°C° 0.7 mm 1 mps 753 mmHg 78%
    18:00 +29°C° 0.7 mm 1 mps 754 mmHg 83%
    19:00 +28°C° 0.7 mm 1 mps 755 mmHg 87%
    20:00 +28°C° 0.3 mm 1 mps 755 mmHg 87%
    21:00 +28°C° 0.3 mm 1 mps 756 mmHg 87%
    22:00 +27°C° 0.3 mm 1 mps 757 mmHg 88%
    23:00 +27°C° 0 mm 1 mps 756 mmHg 88%

    20 November, Tuesday

    Time Temperature Precipitation Wind Pressure Humidity
    00:00 +27°C° 0 mm 1 mps 756 mmHg 88%
    01:00 +27°C° 0 mm 1 mps 755 mmHg 88%
    02:00 +26°C° 0.1 mm 1 mps 755 mmHg 88%
    03:00 +26°C° 0.1 mm 1 mps 754 mmHg 88%
    04:00 +26°C° 0.1 mm 1 mps 754 mmHg 88%
    05:00 +26°C° 0.1 mm 1 mps 754 mmHg 87%
    06:00 +26°C° 0.1 mm 1 mps 755 mmHg 87%
    07:00 +26°C° 0.1 mm 1 mps 755 mmHg 86%
    08:00 +28°C° 0.1 mm 1 mps 756 mmHg 77%
    09:00 +30°C° 0.1 mm 1 mps 756 mmHg 69%
    10:00 +32°C° 0.1 mm 1 mps 756 mmHg 60%
    11:00 +34°C° 0.2 mm 2 mps 755 mmHg 62%
    12:00 +34°C° 0.2 mm 2 mps 755 mmHg 63%
    13:00 +34°C° 0.2 mm 2 mps 754 mmHg 65%
    14:00 +32°C° 0.7 mm 2 mps 753 mmHg 69%
    15:00 +31°C° 0.7 mm 2 mps 753 mmHg 73%
    16:00 +31°C° 0.7 mm 2 mps 753 mmHg 76%
    17:00 +29°C° 0.6 mm 2 mps 753 mmHg 81%
    18:00 +28°C° 0.6 mm 2 mps 754 mmHg 86%
    19:00 +27°C° 0.6 mm 2 mps 755 mmHg 90%
    20:00 +27°C° 0.3 mm 2 mps 755 mmHg 90%
    21:00 +27°C° 0.3 mm 2 mps 756 mmHg 90%
    22:00 +26°C° 0.3 mm 1 mps 756 mmHg 90%
    23:00 +26°C° 0.3 mm 1 mps 756 mmHg 90%

    21 November, Wednesday

    Time Temperature Precipitation Wind Pressure Humidity
    00:00 +26°C° 0.3 mm 1 mps 755 mmHg 91%
    01:00 +26°C° 0.3 mm 1 mps 755 mmHg 91%
    02:00 +26°C° 0.5 mm 1 mps 754 mmHg 91%
    03:00 +26°C° 0.5 mm 1 mps 754 mmHg 91%
    04:00 +25°C° 0.5 mm 1 mps 754 mmHg 92%
    05:00 +25°C° 0.5 mm 1 mps 754 mmHg 92%
    06:00 +26°C° 0.5 mm 1 mps 755 mmHg 92%
    07:00 +26°C° 0.5 mm 1 mps 755 mmHg 92%
    08:00 +27°C° 0.4 mm 1 mps 756 mmHg 86%
    09:00 +29°C° 0.4 mm 1 mps 756 mmHg 81%
    10:00 +30°C° 0.4 mm 1 mps 756 mmHg 76%
    11:00 +30°C° 1.1 mm 1 mps 755 mmHg 78%
    12:00 +30°C° 1.1 mm 1 mps 755 mmHg 79%
    13:00 +30°C° 1.1 mm 2 mps 754 mmHg 81%
    14:00 +30°C° 1.5 mm 2 mps 753 mmHg 83%
    15:00 +29°C° 1.5 mm 2 mps 753 mmHg 86%
    16:00 +29°C° 1.5 mm 1 mps 753 mmHg 88%
    17:00 +28°C° 0.9 mm 1 mps 753 mmHg 91%
    18:00 +27°C° 0.9 mm 1 mps 754 mmHg 93%
    19:00 +27°C° 0.9 mm 1 mps 755 mmHg 95%
    20:00 +26°C° 0.5 mm 1 mps 755 mmHg 96%
    21:00 +26°C° 0.5 mm 1 mps 755 mmHg 96%
    22:00 +26°C° 0.5 mm 1 mps 756 mmHg 96%
    23:00 +26°C° 0.3 mm 1 mps 755 mmHg 96%
    Show more